User: anonymous   Login
Location: Bukit Lungun
(2.6833°N, 113.9667°E)
Time: 23:54:14
(UTC+00:00)
Language:

Iridium 45 - Orbit

View from above orbital plane
View from above orbital plane
View from above satellite
View from above satellite

Ground track
Ground track

The orbit data is extracted from the following two-line orbital elements,

1 25104U 97082A   21129.44629189  .00000787  00000-0  58988-4 0  9990
2 25104  86.3850  24.2709 0210760 332.2326  26.7767 14.85008405227804
Epoch (UTC): 09 May 2021 10:42:39
Eccentricity: 0.0210760
inclination: 86.3850°
perigee height: 466 km
apogee height: 761 km
right ascension of ascending node: 24.2709°
argument of perigee: 332.2326°
revolutions per day: 14.85008405
mean anomaly at epoch: 26.7767°
orbit number at epoch: 22780

The dashed part of the orbit path shows where the satellite is in the earth's shadow,  

DLR